CTV174 WIII-WARR

Flight info

Callsign CTV174
Flight time 1h 1m
Altitude 35000
Route CA T3 BA
Aircraft A320/M-SDE3FGHIRWY/LB1

Departure

Time 2026-05-06 10:50
Airport Soekarno-Hatta International Airport (WIII)

Arrival

Time 2026-05-06 11:52
Airport Juanda International Airport (WARR)
Time Latitude Longitude Altitude Speed Heading
2026-05-06 10:20 -6.13256 106.65271 38 ft 0 kts 336°
2026-05-06 10:30 -6.13257 106.65271 38 ft 0 kts 336°
2026-05-06 10:41 -6.13265 106.65275 38 ft 2 kts 331°
2026-05-06 10:41 -6.13279 106.65283 36 ft 2 kts 326°
2026-05-06 10:42 -6.13292 106.65292 37 ft 2 kts 318°
2026-05-06 10:42 -6.13304 106.65305 35 ft 2 kts 290°
2026-05-06 10:42 -6.13306 106.65321 35 ft 2 kts 253°
2026-05-06 10:42 -6.13304 106.65328 35 ft 0 kts 248°
2026-05-06 10:45 -6.13314 106.65304 34 ft 8 kts 248°
2026-05-06 10:46 -6.13345 106.65234 36 ft 12 kts 232°
2026-05-06 10:46 -6.13412 106.65233 38 ft 9 kts 158°
2026-05-06 10:46 -6.13476 106.65258 38 ft 12 kts 159°
2026-05-06 10:46 -6.13566 106.65292 38 ft 16 kts 158°
2026-05-06 10:47 -6.13665 106.65316 39 ft 13 kts 200°
2026-05-06 10:47 -6.13708 106.65246 39 ft 12 kts 248°
2026-05-06 10:47 -6.13746 106.65152 39 ft 17 kts 248°
2026-05-06 10:47 -6.13795 106.65028 39 ft 21 kts 249°
2026-05-06 10:48 -6.13856 106.64876 39 ft 25 kts 248°
2026-05-06 10:48 -6.13922 106.64709 39 ft 26 kts 247°
2026-05-06 10:48 -6.13991 106.64535 37 ft 27 kts 248°
2026-05-06 10:48 -6.14062 106.64361 37 ft 24 kts 247°
2026-05-06 10:49 -6.14128 106.64303 40 ft 11 kts 187°
2026-05-06 10:49 -6.14188 106.64327 40 ft 10 kts 133°
2026-05-06 10:49 -6.14233 106.64394 41 ft 14 kts 99°
2026-05-06 10:49 -6.14186 106.64534 38 ft 42 kts 68°
2026-05-06 10:50 -6.13993 106.65016 39 ft 105 kts 68°
2026-05-06 10:50 -6.13655 106.65865 40 ft 154 kts 68°
2026-05-06 10:50 -6.13219 106.66960 326 ft 172 kts 66°
2026-05-06 10:50 -6.12770 106.68068 921 ft 171 kts 68°
2026-05-06 10:51 -6.12308 106.69216 1314 ft 186 kts 68°
2026-05-06 10:51 -6.11801 106.70494 1519 ft 209 kts 69°
2026-05-06 10:51 -6.11233 106.71930 1832 ft 234 kts 69°
2026-05-06 10:51 -6.10642 106.73532 2291 ft 253 kts 77°
2026-05-06 10:52 -6.10544 106.75311 3006 ft 259 kts 90°
2026-05-06 10:52 -6.10523 106.77131 3851 ft 261 kts 89°
2026-05-06 10:52 -6.10476 106.78963 4673 ft 264 kts 89°
2026-05-06 10:52 -6.10421 106.80815 5459 ft 267 kts 89°
2026-05-06 10:53 -6.10366 106.82694 6228 ft 271 kts 89°
2026-05-06 10:53 -6.10312 106.84597 6961 ft 274 kts 89°
2026-05-06 10:53 -6.10258 106.86522 7701 ft 277 kts 89°
2026-05-06 10:53 -6.10206 106.88463 8433 ft 280 kts 89°
2026-05-06 10:54 -6.10154 106.90427 9165 ft 283 kts 89°
2026-05-06 10:54 -6.10103 106.92409 9863 ft 286 kts 88°
2026-05-06 10:54 -6.10128 106.94441 10241 ft 301 kts 99°
2026-05-06 10:54 -6.10750 106.96496 10385 ft 323 kts 109°
2026-05-06 10:55 -6.11552 106.98662 10766 ft 335 kts 110°
2026-05-06 10:55 -6.12381 107.00864 11340 ft 339 kts 110°
2026-05-06 10:55 -6.13225 107.03096 11947 ft 343 kts 110°
2026-05-06 10:55 -6.14073 107.05346 12551 ft 347 kts 110°
2026-05-06 10:56 -6.14928 107.07624 13135 ft 350 kts 109°
2026-05-06 10:56 -6.15787 107.09926 13707 ft 353 kts 109°
2026-05-06 10:56 -6.16650 107.12251 14206 ft 357 kts 109°
2026-05-06 10:56 -6.17520 107.14599 14709 ft 360 kts 109°
2026-05-06 10:57 -6.18397 107.16968 15217 ft 363 kts 109°
2026-05-06 10:57 -6.19283 107.19353 15721 ft 366 kts 109°
2026-05-06 10:57 -6.20179 107.21758 16220 ft 369 kts 109°
2026-05-06 10:57 -6.21081 107.24182 16718 ft 372 kts 109°
2026-05-06 10:58 -6.21990 107.26630 17201 ft 375 kts 109°
2026-05-06 10:58 -6.22905 107.29097 17690 ft 378 kts 109°
2026-05-06 10:58 -6.23826 107.31582 18147 ft 381 kts 109°
2026-05-06 10:58 -6.24753 107.34085 18548 ft 384 kts 109°
2026-05-06 10:59 -6.25685 107.36603 18954 ft 386 kts 109°
2026-05-06 10:59 -6.26629 107.39145 19362 ft 389 kts 110°
2026-05-06 10:59 -6.27577 107.41697 19749 ft 391 kts 110°
2026-05-06 10:59 -6.28531 107.44267 20133 ft 394 kts 110°
2026-05-06 11:00 -6.29488 107.46851 20529 ft 396 kts 110°
2026-05-06 11:00 -6.30453 107.49454 20904 ft 398 kts 110°
2026-05-06 11:00 -6.31415 107.52041 21276 ft 401 kts 110°
2026-05-06 11:00 -6.32392 107.54676 21645 ft 403 kts 110°
2026-05-06 11:01 -6.33374 107.57328 22016 ft 406 kts 110°
2026-05-06 11:01 -6.34360 107.59993 22372 ft 408 kts 110°
2026-05-06 11:01 -6.35352 107.62673 22731 ft 410 kts 110°
2026-05-06 11:01 -6.36347 107.65369 23074 ft 413 kts 110°
2026-05-06 11:02 -6.37350 107.68083 23415 ft 415 kts 110°
2026-05-06 11:02 -6.38362 107.70807 23690 ft 417 kts 110°
2026-05-06 11:02 -6.39379 107.73547 23984 ft 419 kts 110°
2026-05-06 11:02 -6.40400 107.76299 24270 ft 421 kts 110°
2026-05-06 11:03 -6.41421 107.79062 24571 ft 423 kts 110°
2026-05-06 11:03 -6.42100 107.80898 24756 ft 424 kts 110°
2026-05-06 11:03 -6.43478 107.84627 25134 ft 426 kts 110°
2026-05-06 11:03 -6.44160 107.86478 25330 ft 427 kts 110°
2026-05-06 11:04 -6.45196 107.89286 25612 ft 429 kts 110°
2026-05-06 11:04 -6.46240 107.92108 25892 ft 431 kts 110°
2026-05-06 11:04 -6.47289 107.94936 26170 ft 433 kts 110°
2026-05-06 11:04 -6.48340 107.97776 26443 ft 434 kts 110°
2026-05-06 11:05 -6.49393 108.00630 26696 ft 436 kts 109°
2026-05-06 11:05 -6.50450 108.03495 26955 ft 438 kts 109°
2026-05-06 11:05 -6.51511 108.06374 27214 ft 440 kts 109°
2026-05-06 11:05 -6.52575 108.09259 27466 ft 441 kts 109°
2026-05-06 11:06 -6.53649 108.12160 27718 ft 443 kts 110°
2026-05-06 11:06 -6.54727 108.15072 27979 ft 445 kts 109°
2026-05-06 11:06 -6.55806 108.17993 28233 ft 447 kts 109°
2026-05-06 11:06 -6.56890 108.20928 28479 ft 449 kts 109°
2026-05-06 11:07 -6.57975 108.23877 28725 ft 450 kts 109°
2026-05-06 11:07 -6.59062 108.26839 28962 ft 452 kts 109°
2026-05-06 11:07 -6.60154 108.29810 29197 ft 454 kts 109°
2026-05-06 11:07 -6.61253 108.32793 29423 ft 456 kts 109°
2026-05-06 11:08 -6.62343 108.35752 29649 ft 457 kts 109°
2026-05-06 11:08 -6.63449 108.38754 29855 ft 459 kts 109°
2026-05-06 11:08 -6.64561 108.41770 30044 ft 461 kts 109°
2026-05-06 11:08 -6.65675 108.44796 30214 ft 462 kts 109°
2026-05-06 11:09 -6.66796 108.47836 30409 ft 464 kts 109°
2026-05-06 11:09 -6.67917 108.50882 30598 ft 465 kts 109°
2026-05-06 11:09 -6.69040 108.53926 30860 ft 464 kts 109°
2026-05-06 11:09 -6.69948 108.57029 31112 ft 463 kts 101°
2026-05-06 11:10 -6.70473 108.60225 31359 ft 462 kts 98°
2026-05-06 11:10 -6.70961 108.63417 31614 ft 462 kts 98°
2026-05-06 11:10 -6.71447 108.66614 31862 ft 462 kts 98°
2026-05-06 11:10 -6.71931 108.69805 32122 ft 461 kts 98°
2026-05-06 11:11 -6.72416 108.72997 32383 ft 461 kts 98°
2026-05-06 11:11 -6.72903 108.76183 32643 ft 461 kts 98°
2026-05-06 11:11 -6.73392 108.79364 32907 ft 461 kts 98°
2026-05-06 11:11 -6.73883 108.82548 33154 ft 461 kts 98°
2026-05-06 11:12 -6.74373 108.85733 33421 ft 460 kts 98°
2026-05-06 11:12 -6.74860 108.88922 33671 ft 460 kts 98°
2026-05-06 11:12 -6.75345 108.92108 33918 ft 460 kts 98°
2026-05-06 11:12 -6.75826 108.95246 34126 ft 460 kts 98°
2026-05-06 11:13 -6.76316 108.98430 34350 ft 460 kts 98°
2026-05-06 11:13 -6.76806 109.01607 34562 ft 460 kts 98°
2026-05-06 11:13 -6.77297 109.04786 34760 ft 460 kts 98°
2026-05-06 11:14 -6.78268 109.11118 34842 ft 456 kts 98°
2026-05-06 11:14 -6.79224 109.17411 34828 ft 454 kts 98°
2026-05-06 11:15 -6.80172 109.23694 34839 ft 454 kts 98°
2026-05-06 11:15 -6.81133 109.29977 34836 ft 454 kts 98°
2026-05-06 11:16 -6.82093 109.36263 34832 ft 454 kts 98°
2026-05-06 11:16 -6.83049 109.42546 34829 ft 454 kts 98°
2026-05-06 11:17 -6.84007 109.48827 34826 ft 454 kts 98°
2026-05-06 11:17 -6.84964 109.55114 34827 ft 455 kts 98°
2026-05-06 11:18 -6.85918 109.61405 34816 ft 455 kts 98°
2026-05-06 11:18 -6.86864 109.67692 34826 ft 454 kts 98°
2026-05-06 11:19 -6.87808 109.73929 34826 ft 454 kts 98°
2026-05-06 11:19 -6.88761 109.80218 34824 ft 454 kts 98°
2026-05-06 11:20 -6.89714 109.86504 34819 ft 455 kts 98°
2026-05-06 11:20 -6.90663 109.92794 34817 ft 455 kts 98°
2026-05-06 11:21 -6.91614 109.99091 34816 ft 455 kts 98°
2026-05-06 11:21 -6.92565 110.05381 34809 ft 455 kts 98°
2026-05-06 11:22 -6.93518 110.11676 34807 ft 455 kts 98°
2026-05-06 11:22 -6.94464 110.17986 34814 ft 456 kts 98°
2026-05-06 11:23 -6.95408 110.24290 34814 ft 455 kts 98°
2026-05-06 11:23 -6.96354 110.30588 34814 ft 455 kts 98°
2026-05-06 11:24 -6.97302 110.36890 34811 ft 455 kts 97°
2026-05-06 11:24 -6.97571 110.43239 34814 ft 454 kts 90°
2026-05-06 11:25 -6.97684 110.49600 34814 ft 454 kts 90°
2026-05-06 11:25 -6.97799 110.55957 34807 ft 454 kts 90°
2026-05-06 11:26 -6.97917 110.62267 34803 ft 453 kts 90°
2026-05-06 11:26 -6.98027 110.68611 34798 ft 453 kts 90°
2026-05-06 11:27 -6.98135 110.74954 34798 ft 454 kts 90°
2026-05-06 11:27 -6.98248 110.81309 34745 ft 455 kts 90°
2026-05-06 11:27 -6.98307 110.84475 34509 ft 452 kts 90°
2026-05-06 11:28 -6.98367 110.87623 34083 ft 448 kts 90°
2026-05-06 11:28 -6.98425 110.90761 33490 ft 447 kts 90°
2026-05-06 11:28 -6.98477 110.93882 32949 ft 445 kts 90°
2026-05-06 11:28 -6.98526 110.96984 32412 ft 442 kts 90°
2026-05-06 11:29 -6.98574 111.00075 31876 ft 440 kts 90°
2026-05-06 11:29 -6.98622 111.03146 31356 ft 438 kts 90°
2026-05-06 11:29 -6.98670 111.06201 30833 ft 436 kts 91°
2026-05-06 11:29 -6.98720 111.09239 30321 ft 434 kts 91°
2026-05-06 11:30 -6.98771 111.12271 29796 ft 432 kts 91°
2026-05-06 11:30 -6.98824 111.15283 29257 ft 429 kts 91°
2026-05-06 11:30 -6.98875 111.18275 28767 ft 425 kts 91°
2026-05-06 11:30 -6.98923 111.21236 28288 ft 421 kts 91°
2026-05-06 11:31 -6.98967 111.24163 27817 ft 416 kts 91°
2026-05-06 11:31 -6.99012 111.27062 27354 ft 412 kts 91°
2026-05-06 11:31 -6.99058 111.29935 26903 ft 409 kts 91°
2026-05-06 11:31 -6.99104 111.32781 26450 ft 405 kts 91°
2026-05-06 11:32 -6.99152 111.35602 25998 ft 402 kts 91°
2026-05-06 11:32 -6.99201 111.38366 25558 ft 399 kts 91°
2026-05-06 11:32 -6.99295 111.41148 25090 ft 396 kts 96°
2026-05-06 11:32 -6.99810 111.43858 24630 ft 393 kts 106°
2026-05-06 11:33 -7.00567 111.46505 24142 ft 392 kts 106°
2026-05-06 11:33 -7.01318 111.49136 23669 ft 391 kts 106°
2026-05-06 11:33 -7.02070 111.51765 23141 ft 390 kts 106°
2026-05-06 11:33 -7.02819 111.54387 22638 ft 388 kts 106°
2026-05-06 11:34 -7.03559 111.56992 22145 ft 386 kts 106°
2026-05-06 11:34 -7.04289 111.59579 21680 ft 384 kts 106°
2026-05-06 11:34 -7.05017 111.62158 21210 ft 382 kts 106°
2026-05-06 11:34 -7.05741 111.64719 20746 ft 380 kts 106°
2026-05-06 11:35 -7.06463 111.67273 20280 ft 378 kts 106°
2026-05-06 11:35 -7.07181 111.69816 19818 ft 377 kts 106°
2026-05-06 11:35 -7.07898 111.72351 19356 ft 376 kts 106°
2026-05-06 11:35 -7.08612 111.74887 18901 ft 376 kts 106°
2026-05-06 11:36 -7.09317 111.77382 18460 ft 375 kts 106°
2026-05-06 11:36 -7.10029 111.79893 18028 ft 373 kts 107°
2026-05-06 11:36 -7.10737 111.82389 17654 ft 369 kts 107°
2026-05-06 11:36 -7.11441 111.84871 17226 ft 366 kts 107°
2026-05-06 11:37 -7.12135 111.87323 16832 ft 362 kts 107°
2026-05-06 11:37 -7.12821 111.89755 16395 ft 361 kts 107°
2026-05-06 11:37 -7.13502 111.92176 15996 ft 358 kts 107°
2026-05-06 11:37 -7.14174 111.94573 15739 ft 351 kts 107°
2026-05-06 11:38 -7.14828 111.96894 15623 ft 336 kts 107°
2026-05-06 11:38 -7.15448 111.99094 15488 ft 318 kts 107°
2026-05-06 11:38 -7.16197 112.01124 15244 ft 303 kts 114°
2026-05-06 11:38 -7.17026 112.03055 14821 ft 299 kts 115°
2026-05-06 11:39 -7.17846 112.04965 14368 ft 295 kts 115°
2026-05-06 11:39 -7.18658 112.06856 13919 ft 293 kts 115°
2026-05-06 11:39 -7.19461 112.08730 13460 ft 290 kts 115°
2026-05-06 11:39 -7.20246 112.10564 12971 ft 288 kts 114°
2026-05-06 11:40 -7.21032 112.12401 12510 ft 283 kts 114°
2026-05-06 11:40 -7.21809 112.14222 12018 ft 281 kts 114°
2026-05-06 11:40 -7.22575 112.16015 11583 ft 276 kts 114°
2026-05-06 11:40 -7.23330 112.17778 11177 ft 272 kts 114°
2026-05-06 11:41 -7.24075 112.19517 10781 ft 269 kts 114°
2026-05-06 11:41 -7.24814 112.21241 10393 ft 267 kts 113°
2026-05-06 11:41 -7.25549 112.22956 10048 ft 266 kts 113°
2026-05-06 11:41 -7.26276 112.24659 9781 ft 265 kts 113°
2026-05-06 11:42 -7.27004 112.26365 9390 ft 266 kts 113°
2026-05-06 11:42 -7.27732 112.28072 9070 ft 264 kts 113°
2026-05-06 11:42 -7.28460 112.29778 8731 ft 263 kts 113°
2026-05-06 11:42 -7.29184 112.31470 8335 ft 264 kts 113°
2026-05-06 11:43 -7.29793 112.33196 8061 ft 260 kts 102°
2026-05-06 11:43 -7.30153 112.34979 7695 ft 260 kts 102°
2026-05-06 11:43 -7.30511 112.36759 7344 ft 259 kts 102°
2026-05-06 11:44 -7.31224 112.40307 6660 ft 257 kts 102°
2026-05-06 11:44 -7.31577 112.42070 6327 ft 256 kts 102°
2026-05-06 11:44 -7.31931 112.43829 5978 ft 255 kts 102°
2026-05-06 11:44 -7.32297 112.45572 5626 ft 254 kts 106°
2026-05-06 11:45 -7.32803 112.47254 5205 ft 255 kts 104°
2026-05-06 11:45 -7.33158 112.48965 4961 ft 242 kts 99°
2026-05-06 11:45 -7.33420 112.50584 4835 ft 226 kts 99°
2026-05-06 11:45 -7.33661 112.52091 4705 ft 212 kts 99°
2026-05-06 11:46 -7.33894 112.53529 4462 ft 206 kts 99°
2026-05-06 11:46 -7.34123 112.54937 4246 ft 201 kts 99°
2026-05-06 11:46 -7.34346 112.56304 3969 ft 195 kts 99°
2026-05-06 11:46 -7.34563 112.57635 3717 ft 190 kts 99°
2026-05-06 11:47 -7.34774 112.58936 3484 ft 186 kts 99°
2026-05-06 11:47 -7.34981 112.60208 3256 ft 182 kts 99°
2026-05-06 11:47 -7.35184 112.61454 3026 ft 178 kts 99°
2026-05-06 11:47 -7.35382 112.62673 2799 ft 175 kts 99°
2026-05-06 11:48 -7.35578 112.63873 2583 ft 171 kts 98°
2026-05-06 11:48 -7.35768 112.65046 2362 ft 168 kts 99°
2026-05-06 11:48 -7.35955 112.66196 2151 ft 165 kts 99°
2026-05-06 11:48 -7.36139 112.67327 1940 ft 162 kts 99°
2026-05-06 11:49 -7.36319 112.68431 1752 ft 154 kts 99°
2026-05-06 11:49 -7.36486 112.69458 1554 ft 145 kts 98°
2026-05-06 11:49 -7.36646 112.70444 1366 ft 142 kts 99°
2026-05-06 11:49 -7.36802 112.71408 1185 ft 140 kts 99°
2026-05-06 11:50 -7.36959 112.72370 1002 ft 140 kts 99°
2026-05-06 11:50 -7.37116 112.73336 827 ft 140 kts 100°
2026-05-06 11:50 -7.37273 112.74305 664 ft 140 kts 97°
2026-05-06 11:50 -7.37429 112.75269 469 ft 140 kts 100°
2026-05-06 11:51 -7.37584 112.76229 293 ft 138 kts 98°
2026-05-06 11:51 -7.37741 112.77180 94 ft 138 kts 99°
2026-05-06 11:51 -7.37888 112.78092 9 ft 118 kts 99°
2026-05-06 11:51 -7.37992 112.78745 10 ft 73 kts 99°
2026-05-06 11:52 -7.38052 112.79117 11 ft 37 kts 98°
2026-05-06 11:52 -7.38013 112.79316 9 ft 26 kts 69°
2026-05-06 11:52 -7.37977 112.79396 11 ft 16 kts 44°
2026-05-06 11:52 -7.37912 112.79415 9 ft 8 kts
2026-05-06 11:53 -7.37864 112.79421 9 ft 6 kts
2026-05-06 11:53 -7.37824 112.79427 9 ft 5 kts
2026-05-06 11:53 -7.37793 112.79432 9 ft 4 kts 10°
2026-05-06 11:53 -7.37752 112.79441 9 ft 9 kts 11°
2026-05-06 11:54 -7.37694 112.79455 9 ft 5 kts 32°
2026-05-06 11:54 -7.37687 112.79508 9 ft 11 kts 99°
2026-05-06 11:54 -7.37695 112.79570 9 ft 5 kts 77°
2026-05-06 11:54 -7.37649 112.79586 9 ft 11 kts 12°
2026-05-06 11:55 -7.37607 112.79593 9 ft 3 kts
2026-05-06 11:55 -7.37605 112.79594 9 ft 0 kts